Weather History for KBEH - October, 2012

Change the Weather History Date:

Monday, October 8, 2012

  Actual Average Record
Temperature  
Mean Temperature 46 °F -  
Max Temperature 57 °F 63 °F 86 °F (2007)
Min Temperature 37 °F 43 °F 23 °F (1989)
Degree Days  
Heating Degree Days 19    
Moisture  
Dew Point 29 °F    
Average Humidity 54    
Maximum Humidity 70    
Minimum Humidity 36    
Precipitation  
Precipitation 0.00 in - - ()
Sea Level Pressure  
Sea Level Pressure 30.13 in    
Wind  
Wind Speed 6 mph (South)    
Max Wind Speed 12 mph    
Max Gust Speed 22 mph    
Visibility 10 miles    
Events      
Averages and records for this station are not official NWS values.
T = Trace of Precipitation, MM = Missing Value Source: NWS Daily Summary

Daily Weather History Graph

Daily Weather History Graph

Search for Another Location

Airport or City:

Trip Planner

Search our weather history database for the weather conditions in past years. The results will help you decide how hot, cold, wet, or windy it might be!

Date:

Astronomy

Oct. 08, 2012 Rise Set
Actual Time 7:50 AM EDT 7:14 PM EDT
Civil Twilight 7:22 AM EDT 7:42 PM EDT
Nautical Twilight 6:50 AM EDT 8:14 PM EDT
Astronomical Twilight 6:18 AM EDT 8:47 PM EDT
Moon 12:23 AM EDT (10/8) 3:10 PM EDT (10/8)
Length of Visible Light 12h 19m
Length of Day
11h 23m
Waning Gibbous, 46% of the Moon is Illuminated
Oct 8
Waning Gibbous
Oct 15
New
Oct 21
First Quarter
Oct 29
Full
Nov 6
Last Quarter

Hourly Weather History & Observations

Time (EDT) Temp. Windchill Dew Point Humidity Pressure Visibility Wind Dir Wind Speed Gust Speed Precip Events Conditions
12:53 AM 39.9 °F 36.7 °F 30.9 °F 70% 30.15 in 10.0 mi South 4.6 mph - N/A   Overcast
1:53 AM 41.0 °F 39.0 °F 30.0 °F 65% 30.15 in 10.0 mi Variable 3.5 mph - N/A   Overcast
2:53 AM 39.0 °F - 30.0 °F 70% 30.16 in 10.0 mi Calm Calm - N/A   Mostly Cloudy
3:53 AM 37.9 °F 33.5 °F 28.9 °F 70% 30.15 in 10.0 mi South 5.8 mph - N/A   Mostly Cloudy
4:53 AM 37.0 °F 31.6 °F 28.0 °F 70% 30.15 in 10.0 mi South 6.9 mph - N/A   Scattered Clouds
5:53 AM 37.0 °F 32.4 °F 27.0 °F 67% 30.15 in 10.0 mi South 5.8 mph - N/A   Partly Cloudy
6:53 AM 37.0 °F 31.0 °F 27.0 °F 67% 30.17 in 10.0 mi South 8.1 mph - N/A   Partly Cloudy
7:53 AM 37.0 °F 31.0 °F 27.0 °F 67% 30.18 in 10.0 mi South 8.1 mph - N/A   Clear
8:53 AM 37.9 °F 33.5 °F 28.0 °F 68% 30.19 in 10.0 mi South 5.8 mph - N/A   Clear
9:53 AM 43.0 °F 37.7 °F 28.9 °F 58% 30.19 in 10.0 mi SSW 9.2 mph - N/A   Clear
10:53 AM 46.9 °F - 30.0 °F 52% 30.19 in 10.0 mi South 10.4 mph - N/A   Clear
11:53 AM 50.0 °F - 28.9 °F 44% 30.18 in 10.0 mi South 10.4 mph - N/A   Clear
12:53 PM 52.0 °F - 30.0 °F 43% 30.17 in 10.0 mi South 11.5 mph 19.6 mph N/A   Clear
1:53 PM 54.0 °F - 30.9 °F 41% 30.14 in 10.0 mi SSW 8.1 mph 20.7 mph N/A   Clear
2:53 PM 55.0 °F - 28.9 °F 37% 30.12 in 10.0 mi SW 9.2 mph 21.9 mph N/A   Clear
3:53 PM 55.9 °F - 30.0 °F 37% 30.09 in 10.0 mi South 11.5 mph 20.7 mph N/A   Clear
4:53 PM 55.9 °F - 28.9 °F 36% 30.07 in 10.0 mi SW 11.5 mph 21.9 mph N/A   Clear
5:53 PM 55.0 °F - 28.9 °F 37% 30.06 in 10.0 mi South 9.2 mph 18.4 mph N/A   Clear
6:53 PM 53.1 °F - 28.0 °F 38% 30.06 in 10.0 mi South 5.8 mph - N/A   Clear
8:53 PM 46.9 °F - 30.9 °F 54% 30.07 in 10.0 mi SSE 6.9 mph - N/A   Clear
9:53 PM 46.0 °F 43.1 °F 30.9 °F 56% 30.08 in 10.0 mi South 5.8 mph - N/A   Clear
10:53 PM 46.9 °F - 30.0 °F 52% 30.08 in 10.0 mi South 6.9 mph - N/A   Clear
11:53 PM 48.0 °F - 30.9 °F 52% 30.06 in 10.0 mi South 8.1 mph - N/A   Clear